When you browse on this site, cookies collect data to enhance your experience and personalize the content and advertising you see.
Visit our Privacy Policy to learn more. By continuing to use the site, you agree to this use of cookies and data.
  • In Hungary
  • List of Countries
  • For 7 days
  • Water Temperature
  • Satellite Maps
  • Weather Map
  • News
  • Weather Widgets
  • user-avatar
    Login

    Hourly Weather Pervomais'ke

    Today, 19 December, Wednesday

    Time Temperature Precipitation Wind Pressure Humidity
    00:00 -11°C° 0 mm 4 mps 758 mmHg 89%
    01:00 -11°C° 0 mm 4 mps 758 mmHg 90%
    02:00 -12°C° 0 mm 4 mps 758 mmHg 91%
    03:00 -9°C° 0 mm 3 mps 758 mmHg 90%
    04:00 -11°C° 0 mm 4 mps 758 mmHg 90%
    05:00 -11°C° 0 mm 4 mps 758 mmHg 90%
    06:00 -11°C° 0 mm 4 mps 758 mmHg 90%
    07:00 -11°C° 0 mm 4 mps 758 mmHg 90%
    08:00 -11°C° 0 mm 4 mps 758 mmHg 90%
    09:00 -11°C° 0 mm 4 mps 758 mmHg 89%
    10:00 -10°C° 0 mm 4 mps 758 mmHg 88%
    11:00 -10°C° 0 mm 4 mps 758 mmHg 87%
    12:00 -9°C° 0 mm 4 mps 758 mmHg 85%
    13:00 -9°C° 0 mm 4 mps 758 mmHg 85%
    14:00 -9°C° 0 mm 4 mps 757 mmHg 85%
    15:00 -9°C° 0 mm 4 mps 757 mmHg 84%
    16:00 -9°C° 0 mm 4 mps 757 mmHg 85%
    17:00 -9°C° 0 mm 4 mps 757 mmHg 86%
    18:00 -9°C° 0 mm 4 mps 757 mmHg 87%
    19:00 -9°C° 0 mm 4 mps 757 mmHg 87%
    20:00 -9°C° 0 mm 4 mps 757 mmHg 88%
    21:00 -9°C° 0 mm 4 mps 757 mmHg 88%
    22:00 -9°C° 0 mm 4 mps 757 mmHg 88%
    23:00 -8°C° 0 mm 4 mps 757 mmHg 88%

    Tomorrow, 20 December, Thursday

    Time Temperature Precipitation Wind Pressure Humidity
    00:00 -8°C° 0 mm 4 mps 757 mmHg 88%
    01:00 -8°C° 0 mm 4 mps 757 mmHg 89%
    02:00 -8°C° 0 mm 5 mps 757 mmHg 90%
    03:00 -8°C° 0 mm 5 mps 757 mmHg 90%
    04:00 -8°C° 0 mm 5 mps 757 mmHg 90%
    05:00 -9°C° 0 mm 4 mps 757 mmHg 91%
    06:00 -9°C° 0 mm 4 mps 757 mmHg 91%
    07:00 -9°C° 0 mm 4 mps 757 mmHg 91%
    08:00 -9°C° 0 mm 4 mps 757 mmHg 91%
    09:00 -9°C° 0 mm 4 mps 758 mmHg 92%
    10:00 -8°C° 0 mm 4 mps 757 mmHg 91%
    11:00 -8°C° 0 mm 4 mps 757 mmHg 91%
    12:00 -7°C° 0 mm 4 mps 757 mmHg 90%
    13:00 -7°C° 0.1 mm 4 mps 757 mmHg 90%
    14:00 -7°C° 0.1 mm 4 mps 757 mmHg 90%
    15:00 -5°C° 0.1 mm 4 mps 757 mmHg 90%
    16:00 -5°C° 0 mm 4 mps 757 mmHg 91%
    17:00 -7°C° 0 mm 4 mps 757 mmHg 91%
    18:00 -6°C° 0 mm 3 mps 757 mmHg 92%
    19:00 -6°C° 0 mm 3 mps 757 mmHg 92%
    20:00 -6°C° 0 mm 3 mps 758 mmHg 92%
    21:00 -6°C° 0 mm 3 mps 758 mmHg 92%
    22:00 -6°C° 0 mm 3 mps 758 mmHg 92%
    23:00 -6°C° 0 mm 3 mps 758 mmHg 92%

    Day after tomorrow, 21 December, Friday

    Time Temperature Precipitation Wind Pressure Humidity
    00:00 -6°C° 0 mm 3 mps 758 mmHg 92%
    01:00 -6°C° 0 mm 3 mps 757 mmHg 93%
    02:00 -6°C° 0 mm 3 mps 757 mmHg 93%
    03:00 -7°C° 0 mm 3 mps 757 mmHg 93%
    04:00 -7°C° 0 mm 3 mps 757 mmHg 93%
    05:00 -7°C° 0 mm 3 mps 757 mmHg 93%
    06:00 -7°C° 0 mm 3 mps 757 mmHg 94%
    07:00 -7°C° 0 mm 3 mps 757 mmHg 94%
    08:00 -7°C° 0 mm 3 mps 757 mmHg 94%
    09:00 -7°C° 0 mm 3 mps 757 mmHg 94%
    10:00 -7°C° 0 mm 3 mps 757 mmHg 93%
    11:00 -6°C° 0 mm 3 mps 756 mmHg 92%
    12:00 -5°C° 0 mm 3 mps 756 mmHg 90%
    13:00 -5°C° 0 mm 3 mps 756 mmHg 90%
    14:00 -5°C° 0 mm 3 mps 755 mmHg 91%
    15:00 -5°C° 0 mm 3 mps 755 mmHg 91%
    16:00 -5°C° 0 mm 3 mps 755 mmHg 92%
    17:00 -5°C° 0 mm 3 mps 754 mmHg 93%
    18:00 -5°C° 0 mm 3 mps 754 mmHg 93%
    19:00 -5°C° 0.1 mm 3 mps 754 mmHg 94%
    20:00 -5°C° 0.1 mm 3 mps 753 mmHg 94%
    21:00 -5°C° 0.1 mm 3 mps 753 mmHg 94%
    22:00 -5°C° 0.1 mm 3 mps 753 mmHg 95%
    23:00 -5°C° 0.1 mm 3 mps 752 mmHg 95%

    22 December, Saturday

    Time Temperature Precipitation Wind Pressure Humidity
    00:00 -5°C° 0.1 mm 3 mps 752 mmHg 95%
    01:00 -5°C° 0.3 mm 3 mps 751 mmHg 95%
    02:00 -4°C° 0.3 mm 3 mps 751 mmHg 96%
    03:00 -4°C° 0.3 mm 3 mps 750 mmHg 96%
    04:00 -4°C° 0.4 mm 3 mps 750 mmHg 96%
    05:00 -4°C° 0.4 mm 3 mps 749 mmHg 96%
    06:00 -3°C° 0.4 mm 2 mps 749 mmHg 97%
    07:00 -3°C° 0.3 mm 2 mps 748 mmHg 97%
    08:00 -3°C° 0.3 mm 2 mps 748 mmHg 97%
    09:00 -3°C° 0.3 mm 2 mps 748 mmHg 97%
    10:00 -3°C° 0.2 mm 2 mps 747 mmHg 97%
    11:00 -2°C° 0.2 mm 2 mps 747 mmHg 96%
    12:00 -2°C° 0.2 mm 2 mps 747 mmHg 96%
    13:00 -2°C° 0 mm 2 mps 746 mmHg 96%
    14:00 -2°C° 0 mm 2 mps 746 mmHg 96%
    15:00 -2°C° 0 mm 2 mps 746 mmHg 96%
    16:00 -2°C° 0 mm 3 mps 746 mmHg 96%
    17:00 -2°C° 0 mm 3 mps 745 mmHg 96%
    18:00 -2°C° 0 mm 3 mps 745 mmHg 96%
    19:00 -3°C° 0.2 mm 4 mps 744 mmHg 96%
    20:00 -3°C° 0.2 mm 4 mps 744 mmHg 96%
    21:00 -2°C° 0.2 mm 5 mps 743 mmHg 96%
    22:00 -2°C° 0.3 mm 5 mps 743 mmHg 96%
    23:00 -1°C° 0.3 mm 5 mps 742 mmHg 97%

    23 December, Sunday

    Time Temperature Precipitation Wind Pressure Humidity
    00:00 -1°C° 0.3 mm 5 mps 741 mmHg 97%
    01:00 -1°C° 0.7 mm 5 mps 741 mmHg 98%
    02:00 -1°C° 0.7 mm 5 mps 740 mmHg 98%
    03:00 -1°C° 0.7 mm 5 mps 740 mmHg 98%
    04:00 -1°C° 0.4 mm 4 mps 739 mmHg 98%
    05:00 -1°C° 0.4 mm 4 mps 739 mmHg 98%
    06:00 0°C° 0.4 mm 3 mps 738 mmHg 99%
    07:00 0°C° 0.5 mm 3 mps 738 mmHg 98%
    08:00 0°C° 0.5 mm 3 mps 737 mmHg 98%
    09:00 0°C° 0.5 mm 3 mps 737 mmHg 98%
    10:00 0°C° 0.6 mm 3 mps 737 mmHg 99%
    11:00 +1°C° 0.6 mm 2 mps 737 mmHg 99%
    12:00 +1°C° 0.6 mm 2 mps 736 mmHg 99%
    13:00 0°C° 0.5 mm 3 mps 736 mmHg 99%
    14:00 0°C° 0.5 mm 3 mps 736 mmHg 99%
    15:00 0°C° 0.5 mm 3 mps 736 mmHg 99%
    16:00 0°C° 0.1 mm 3 mps 736 mmHg 98%
    17:00 -1°C° 0.1 mm 4 mps 736 mmHg 98%
    18:00 -1°C° 0.1 mm 4 mps 737 mmHg 97%
    19:00 -1°C° 0.1 mm 4 mps 737 mmHg 97%
    20:00 -1°C° 0.1 mm 4 mps 737 mmHg 97%
    21:00 -1°C° 0.1 mm 4 mps 737 mmHg 97%
    22:00 -1°C° 0 mm 4 mps 737 mmHg 97%
    23:00 0°C° 0 mm 3 mps 738 mmHg 97%

    24 December, Monday

    Time Temperature Precipitation Wind Pressure Humidity
    00:00 0°C° 0 mm 3 mps 738 mmHg 97%
    01:00 0°C° 0.1 mm 3 mps 738 mmHg 97%
    02:00 -1°C° 0.1 mm 3 mps 738 mmHg 96%
    03:00 -1°C° 0.1 mm 3 mps 738 mmHg 96%
    04:00 -1°C° 0.1 mm 3 mps 738 mmHg 96%
    05:00 -1°C° 0.1 mm 3 mps 738 mmHg 96%
    06:00 -1°C° 0.1 mm 3 mps 738 mmHg 96%
    07:00 -2°C° 0.2 mm 4 mps 738 mmHg 96%
    08:00 -2°C° 0.2 mm 4 mps 738 mmHg 95%
    09:00 -2°C° 0.2 mm 4 mps 738 mmHg 95%
    10:00 -2°C° 0.1 mm 4 mps 738 mmHg 94%
    11:00 -2°C° 0.1 mm 4 mps 738 mmHg 93%
    12:00 -2°C° 0.1 mm 5 mps 738 mmHg 92%
    13:00 -2°C° 0 mm 4 mps 738 mmHg 91%
    14:00 -2°C° 0 mm 4 mps 739 mmHg 89%
    15:00 -3°C° 0 mm 4 mps 739 mmHg 88%
    16:00 -3°C° 0 mm 4 mps 739 mmHg 89%
    17:00 -3°C° 0 mm 4 mps 739 mmHg 90%
    18:00 -3°C° 0 mm 4 mps 740 mmHg 91%
    19:00 -4°C° 0.1 mm 4 mps 740 mmHg 91%
    20:00 -4°C° 0.1 mm 4 mps 740 mmHg 91%
    21:00 -4°C° 0.1 mm 4 mps 740 mmHg 91%
    22:00 -5°C° 0 mm 5 mps 741 mmHg 90%
    23:00 -5°C° 0 mm 5 mps 741 mmHg 90%
    Show more